| time (UTC) | temp F | wind direction | speed MPH | gust MPH | rain 1hr in | rain 24hr in | rain mn in | humidity % | barometer mb |
| 20260503184016 | 54 | 152 | 1.0 | 5.0 | 0.00 | 0.00 | 0.00 | 85 | 1013.9 |
| 20260503183515 | 54 | 182 | 1.0 | 5.0 | 0.00 | 0.00 | 0.00 | 84 | 1013.9 |
| 20260503183015 | 54 | 186 | 1.0 | 5.0 | 0.00 | 0.00 | 0.00 | 84 | 1014.0 |
| 20260503182516 | 54 | 199 | 1.0 | 8.0 | 0.00 | 0.00 | 0.00 | 83 | 1013.9 |
| 20260503182013 | 55 | 167 | 2.0 | 8.0 | 0.00 | 0.00 | 0.00 | 82 | 1013.9 |
| 20260503181516 | 55 | 131 | 3.0 | 10.0 | 0.00 | 0.00 | 0.00 | 82 | 1013.9 |
| 20260503181013 | 54 | 180 | 4.0 | 10.0 | 0.00 | 0.00 | 0.00 | 83 | 1013.8 |
| 20260503180511 | 54 | 146 | 2.0 | 11.0 | 0.00 | 0.00 | 0.00 | 83 | 1013.9 |
| 20260503180022 | 54 | 158 | 5.0 | 11.0 | 0.00 | 0.00 | 0.00 | 85 | 1013.9 |
| 20260503175510 | 53 | 202 | 4.0 | 9.0 | 0.00 | 0.00 | 0.00 | 87 | 1013.9 |
| 20260503175007 | 53 | 360 | 3.0 | 9.0 | 0.00 | 0.00 | 0.00 | 91 | 1013.8 |
| 20260503174513 | 52 | 153 | 3.0 | 9.0 | 0.00 | 0.00 | 0.00 | 91 | 1013.9 |
| 20260503174009 | 52 | 360 | 3.0 | 6.0 | 0.00 | 0.00 | 0.00 | 91 | 1013.8 |
| 20260503173505 | 52 | 147 | 2.0 | 6.0 | 0.00 | 0.00 | 0.00 | 91 | 1013.8 |
| 20260503173010 | 52 | 360 | 2.0 | 5.0 | 0.00 | 0.00 | 0.00 | 91 | 1013.8 |
| 20260503172505 | 52 | 194 | 1.0 | 5.0 | 0.00 | 0.00 | 0.00 | 90 | 1013.7 |
| 20260503172003 | 52 | 143 | 2.0 | 6.0 | 0.00 | 0.00 | 0.00 | 90 | 1013.6 |
| 20260503171503 | 52 | 153 | 2.0 | 6.0 | 0.00 | 0.00 | 0.00 | 89 | 1013.6 |
| 20260503171003 | 52 | 360 | 1.0 | 6.0 | 0.00 | 0.00 | 0.00 | 89 | 1013.8 |
| 20260503170503 | 52 | 181 | 1.0 | 7.0 | 0.00 | 0.00 | 0.00 | 89 | 1013.7 |
| 20260503150543 | 51 | 140 | 1.0 | 4.0 | 0.00 | 0.00 | 0.00 | 89 | 1013.0 |
| 20260503131029 | 50 | 163 | 0.0 | 5.0 | 0.00 | 0.00 | 0.00 | 90 | 1011.7 |
| 20260503130528 | 50 | 163 | 2.0 | 5.0 | 0.00 | 0.00 | 0.00 | 90 | 1011.5 |
| 20260503110520 | 50 | 163 | 2.0 | 5.0 | 0.00 | 0.00 | 0.00 | 90 | 1011.7 |
| 20260503090509 | 50 | 182 | 3.0 | 6.0 | 0.00 | 0.00 | 0.00 | 90 | 1012.0 |
| 20260503081504 | 50 | 160 | 1.0 | 5.0 | 0.00 | 0.00 | 0.00 | 90 | 1012.5 |
| 20260503081004 | 50 | 168 | 1.0 | 5.0 | 0.00 | 0.00 | 0.00 | 90 | 1012.5 |
| 20260503080506 | 50 | 152 | 1.0 | 5.0 | 0.00 | 0.00 | 0.00 | 90 | 1012.5 |
| 20260503072503 | 50 | 163 | 3.0 | 8.0 | 0.00 | 0.00 | 0.00 | 90 | 1012.5 |
| 20260503072100 | 50 | 173 | 1.0 | 5.0 | 0.00 | 0.00 | 0.00 | 90 | 1012.6 |
| 20260503071605 | 50 | 158 | 2.0 | 5.0 | 0.00 | 0.00 | 0.00 | 90 | 1012.6 |
| 20260503071059 | 50 | 150 | 1.0 | 5.0 | 0.00 | 0.00 | 0.00 | 90 | 1012.5 |
| 20260503070559 | 50 | 168 | 2.0 | 5.0 | 0.00 | 0.00 | 0.00 | 89 | 1012.6 |
| 20260503070105 | 50 | 173 | 2.0 | 5.0 | 0.00 | 0.00 | 0.00 | 90 | 1012.6 |
| 20260503060109 | 50 | 164 | 2.0 | 5.0 | 0.00 | 0.00 | 0.00 | 90 | 1012.8 |
| 20260503055055 | 50 | 148 | 2.0 | 6.0 | 0.00 | 0.00 | 0.00 | 90 | 1012.9 |
| 20260503054601 | 50 | 165 | 3.0 | 6.0 | 0.00 | 0.00 | 0.00 | 90 | 1012.9 |
| 20260503054056 | 50 | 152 | 1.0 | 5.0 | 0.00 | 0.00 | 0.00 | 90 | 1013.0 |
| 20260503053554 | 50 | 153 | 2.0 | 6.0 | 0.00 | 0.00 | 0.00 | 89 | 1012.9 |
| 20260503053054 | 50 | 140 | 2.0 | 6.0 | 0.00 | 0.00 | 0.00 | 89 | 1012.9 |
| 20260503052554 | 50 | 151 | 2.0 | 5.0 | 0.00 | 0.00 | 0.00 | 89 | 1012.9 |
| 20260503052053 | 50 | 143 | 2.0 | 5.0 | 0.00 | 0.00 | 0.00 | 89 | 1013.0 |
| 20260503051554 | 50 | 128 | 1.0 | 5.0 | 0.00 | 0.00 | 0.00 | 89 | 1013.0 |
| 20260503051053 | 50 | 158 | 3.0 | 5.0 | 0.00 | 0.00 | 0.00 | 89 | 1013.0 |
| 20260503050553 | 50 | 163 | 2.0 | 6.0 | 0.00 | 0.00 | 0.00 | 89 | 1012.9 |
| 20260503050054 | 50 | 150 | 2.0 | 7.0 | 0.00 | 0.00 | 0.00 | 89 | 1012.9 |
| 20260503045553 | 50 | 179 | 2.0 | 7.0 | 0.00 | 0.00 | 0.00 | 90 | 1013.0 |
| 20260503045053 | 51 | 157 | 3.0 | 7.0 | 0.00 | 0.00 | 0.00 | 90 | 1012.8 |
| 20260503044604 | 51 | 150 | 2.0 | 5.0 | 0.00 | 0.00 | 0.00 | 90 | 1012.9 |
| 20260503044052 | 51 | 193 | 2.0 | 6.0 | 0.00 | 0.00 | 0.00 | 90 | 1012.9 |
| 20260503043551 | 51 | 171 | 1.0 | 5.0 | 0.00 | 0.00 | 0.00 | 90 | 1012.8 |
| 20260503043057 | 51 | 171 | 2.0 | 5.0 | 0.00 | 0.00 | 0.00 | 90 | 1012.9 |
| 20260503042551 | 51 | 170 | 1.0 | 5.0 | 0.00 | 0.00 | 0.00 | 90 | 1012.7 |
| 20260503042051 | 51 | 163 | 2.0 | 5.0 | 0.00 | 0.00 | 0.00 | 90 | 1012.7 |
| 20260503041552 | 51 | 161 | 1.0 | 4.0 | 0.00 | 0.00 | 0.00 | 90 | 1012.7 |
| 20260503041051 | 50 | 152 | 2.0 | 7.0 | 0.00 | 0.00 | 0.00 | 90 | 1012.7 |
| 20260503040550 | 50 | 130 | 3.0 | 7.0 | 0.00 | 0.00 | 0.00 | 90 | 1012.7 |
| 20260503040052 | 51 | 163 | 3.0 | 5.0 | 0.00 | 0.00 | 0.00 | 90 | 1012.6 |
| 20260503035551 | 51 | 173 | 2.0 | 6.0 | 0.00 | 0.00 | 0.00 | 90 | 1012.7 |
| 20260503035051 | 51 | 148 | 2.0 | 6.0 | 0.00 | 0.00 | 0.00 | 90 | 1012.7 |
| 20260503034551 | 51 | 157 | 2.0 | 6.0 | 0.00 | 0.00 | 0.00 | 90 | 1012.6 |
| 20260503034050 | 51 | 152 | 1.0 | 5.0 | 0.00 | 0.00 | 0.00 | 90 | 1012.6 |
| 20260503033549 | 51 | 169 | 3.0 | 6.0 | 0.00 | 0.00 | 0.00 | 90 | 1012.5 |
| 20260503033104 | 51 | 157 | 3.0 | 6.0 | 0.00 | 0.00 | 0.00 | 90 | 1012.3 |
| 20260503032549 | 51 | 171 | 3.0 | 6.0 | 0.00 | 0.00 | 0.00 | 90 | 1012.4 |
| 20260503032049 | 51 | 161 | 1.0 | 9.0 | 0.00 | 0.00 | 0.00 | 90 | 1012.3 |
| 20260503031549 | 51 | 169 | 2.0 | 9.0 | 0.00 | 0.00 | 0.00 | 90 | 1012.3 |
| 20260503031049 | 51 | 159 | 3.0 | 9.0 | 0.00 | 0.00 | 0.00 | 90 | 1012.1 |
| 20260503030548 | 51 | 165 | 3.0 | 9.0 | 0.00 | 0.00 | 0.00 | 90 | 1012.1 |
| 20260503030048 | 51 | 149 | 3.0 | 8.0 | 0.00 | 0.00 | 0.00 | 89 | 1012.0 |
| 20260503025551 | 51 | 142 | 2.0 | 7.0 | 0.00 | 0.00 | 0.00 | 89 | 1012.0 |
| 20260503025048 | 51 | 135 | 3.0 | 7.0 | 0.00 | 0.00 | 0.00 | 89 | 1012.1 |
| 20260503024551 | 51 | 152 | 3.0 | 7.0 | 0.00 | 0.00 | 0.00 | 89 | 1012.0 |
| 20260503024048 | 51 | 124 | 3.0 | 9.0 | 0.00 | 0.00 | 0.00 | 89 | 1012.0 |
| 20260503023551 | 51 | 130 | 3.0 | 9.0 | 0.00 | 0.00 | 0.00 | 89 | 1012.0 |
| 20260503023058 | 51 | 202 | 3.0 | 7.0 | 0.00 | 0.00 | 0.00 | 89 | 1012.0 |
| 20260503022546 | 51 | 178 | 4.0 | 7.0 | 0.00 | 0.00 | 0.00 | 88 | 1012.0 |
| 20260503022046 | 51 | 128 | 3.0 | 7.0 | 0.00 | 0.00 | 0.00 | 88 | 1012.0 |
| 20260503021551 | 51 | 168 | 3.0 | 9.0 | 0.00 | 0.00 | 0.00 | 88 | 1012.0 |
| 20260503021048 | 51 | 137 | 4.0 | 9.0 | 0.00 | 0.00 | 0.00 | 88 | 1012.1 |
| 20260503020647 | 52 | 168 | 2.0 | 6.0 | 0.00 | 0.00 | 0.00 | 87 | 1012.1 |
| 20260503020046 | 52 | 154 | 3.0 | 7.0 | 0.00 | 0.00 | 0.00 | 86 | 1012.1 |
| 20260503015547 | 52 | 158 | 3.0 | 7.0 | 0.00 | 0.00 | 0.00 | 86 | 1012.0 |
| 20260503015045 | 52 | 183 | 3.0 | 7.0 | 0.00 | 0.00 | 0.00 | 86 | 1012.0 |
| 20260503014548 | 52 | 149 | 2.0 | 10.0 | 0.00 | 0.00 | 0.00 | 85 | 1012.1 |
| 20260503014049 | 52 | 169 | 4.0 | 10.0 | 0.00 | 0.00 | 0.00 | 85 | 1012.1 |
| 20260503013544 | 52 | 173 | 3.0 | 9.0 | 0.00 | 0.00 | 0.00 | 85 | 1012.2 |
| 20260503013044 | 52 | 142 | 3.0 | 7.0 | 0.00 | 0.00 | 0.00 | 84 | 1012.1 |
| 20260503012544 | 52 | 137 | 3.0 | 7.0 | 0.00 | 0.00 | 0.00 | 84 | 1012.2 |
| 20260503012042 | 53 | 360 | 2.0 | 8.0 | 0.00 | 0.00 | 0.00 | 83 | 1012.2 |
| 20260503011557 | 53 | 360 | 1.0 | 9.0 | 0.00 | 0.00 | 0.00 | 83 | 1012.3 |
| 20260503011045 | 53 | 360 | 3.0 | 9.0 | 0.00 | 0.00 | 0.00 | 83 | 1012.2 |
| 20260503010542 | 53 | 360 | 1.0 | 7.0 | 0.00 | 0.00 | 0.00 | 83 | 1012.2 |
| 20260503010052 | 53 | 144 | 1.0 | 7.0 | 0.00 | 0.00 | 0.00 | 83 | 1012.2 |
| 20260503005545 | 54 | 178 | 1.0 | 7.0 | 0.00 | 0.00 | 0.00 | 83 | 1012.3 |
| 20260503005042 | 54 | 105 | 3.0 | 7.0 | 0.00 | 0.00 | 0.00 | 82 | 1012.2 |
| 20260503004542 | 54 | 182 | 3.0 | 5.0 | 0.00 | 0.00 | 0.00 | 83 | 1012.3 |
| 20260503004041 | 54 | 136 | 2.0 | 8.0 | 0.00 | 0.00 | 0.00 | 82 | 1012.3 |
| 20260503003541 | 54 | 141 | 3.0 | 8.0 | 0.00 | 0.00 | 0.00 | 82 | 1012.4 |
| 20260503003053 | 54 | 121 | 2.0 | 8.0 | 0.00 | 0.00 | 0.00 | 82 | 1012.3 |
| 20260503002540 | 54 | 140 | 2.0 | 7.0 | 0.00 | 0.00 | 0.00 | 81 | 1012.3 |
| 20260503002040 | 54 | 144 | 2.0 | 8.0 | 0.00 | 0.00 | 0.00 | 81 | 1012.4 |
| 20260503001540 | 55 | 151 | 3.0 | 10.0 | 0.00 | 0.00 | 0.00 | 81 | 1012.4 |
| 20260503001039 | 55 | 146 | 3.0 | 10.0 | 0.00 | 0.00 | 0.00 | 80 | 1012.4 |
| 20260503000540 | 55 | 162 | 2.0 | 10.0 | 0.00 | 0.00 | 0.00 | 79 | 1012.3 |
| 20260503000058 | 55 | 182 | 3.0 | 9.0 | 0.00 | 0.00 | 0.00 | 80 | 1012.5 |
| 20260502235539 | 56 | 163 | 2.0 | 8.0 | 0.00 | 0.00 | 0.00 | 79 | 1012.5 |
| 20260502235038 | 56 | 168 | 3.0 | 8.0 | 0.00 | 0.00 | 0.00 | 79 | 1012.5 |
| 20260502234543 | 56 | 169 | 2.0 | 8.0 | 0.00 | 0.00 | 0.00 | 79 | 1012.5 |
| 20260502234038 | 55 | 150 | 3.0 | 8.0 | 0.00 | 0.00 | 0.00 | 79 | 1012.6 |
| 20260502233536 | 56 | 163 | 3.0 | 8.0 | 0.00 | 0.00 | 0.00 | 78 | 1012.7 |
| 20260502233038 | 56 | 150 | 2.0 | 8.0 | 0.00 | 0.00 | 0.00 | 79 | 1012.6 |
| 20260502232536 | 56 | 187 | 3.0 | 8.0 | 0.00 | 0.00 | 0.00 | 78 | 1012.7 |
| 20260502232035 | 56 | 128 | 2.0 | 10.0 | 0.00 | 0.00 | 0.00 | 78 | 1012.8 |
| 20260502231540 | 56 | 146 | 2.0 | 10.0 | 0.00 | 0.00 | 0.00 | 78 | 1012.8 |
| 20260502231035 | 56 | 161 | 3.0 | 10.0 | 0.00 | 0.00 | 0.00 | 78 | 1012.8 |
| 20260502230534 | 56 | 188 | 3.0 | 10.0 | 0.00 | 0.00 | 0.00 | 77 | 1012.9 |
| 20260502230035 | 56 | 165 | 2.0 | 9.0 | 0.00 | 0.00 | 0.00 | 77 | 1013.0 |
| 20260502225535 | 56 | 165 | 3.0 | 10.0 | 0.00 | 0.00 | 0.00 | 78 | 1013.2 |
| 20260502225033 | 56 | 167 | 4.0 | 10.0 | 0.00 | 0.00 | 0.00 | 78 | 1013.1 |
| 20260502224534 | 56 | 149 | 2.0 | 11.0 | 0.00 | 0.00 | 0.00 | 78 | 1013.2 |
| 20260502224035 | 56 | 151 | 4.0 | 11.0 | 0.00 | 0.00 | 0.00 | 78 | 1013.3 |
| 20260502223533 | 56 | 136 | 4.0 | 9.0 | 0.00 | 0.00 | 0.00 | 77 | 1013.3 |
| 20260502223033 | 57 | 155 | 2.0 | 10.0 | 0.00 | 0.00 | 0.00 | 77 | 1013.5 |
| 20260502222531 | 57 | 202 | 4.0 | 10.0 | 0.00 | 0.00 | 0.00 | 77 | 1013.4 |
| 20260502222031 | 57 | 172 | 5.0 | 10.0 | 0.00 | 0.00 | 0.00 | 78 | 1013.5 |
| 20260502221530 | 56 | 115 | 2.0 | 10.0 | 0.00 | 0.00 | 0.00 | 78 | 1013.6 |
| 20260502221032 | 56 | 138 | 2.0 | 11.0 | 0.00 | 0.00 | 0.00 | 79 | 1013.7 |
| 20260502220530 | 56 | 180 | 5.0 | 11.0 | 0.00 | 0.00 | 0.00 | 77 | 1013.7 |
| 20260502220031 | 56 | 138 | 3.0 | 9.0 | 0.00 | 0.00 | 0.00 | 77 | 1013.7 |
| 20260502215529 | 56 | 172 | 3.0 | 8.0 | 0.00 | 0.00 | 0.00 | 78 | 1013.7 |
| 20260502215029 | 56 | 153 | 3.0 | 8.0 | 0.00 | 0.00 | 0.00 | 79 | 1013.9 |
| 20260502214528 | 56 | 199 | 4.0 | 8.0 | 0.00 | 0.00 | 0.00 | 78 | 1013.8 |
| 20260502214027 | 56 | 145 | 1.0 | 8.0 | 0.00 | 0.00 | 0.00 | 80 | 1013.7 |
| 20260502213527 | 56 | 225 | 4.0 | 10.0 | 0.00 | 0.00 | 0.00 | 79 | 1013.9 |
| 20260502213030 | 55 | 177 | 5.0 | 10.0 | 0.00 | 0.00 | 0.00 | 80 | 1013.9 |
| 20260502212524 | 55 | 131 | 5.0 | 10.0 | 0.00 | 0.00 | 0.00 | 80 | 1013.9 |
| 20260502212023 | 55 | 229 | 3.0 | 10.0 | 0.00 | 0.00 | 0.00 | 82 | 1014.0 |
| 20260502211523 | 54 | 159 | 5.0 | 9.0 | 0.00 | 0.00 | 0.00 | 82 | 1014.0 |
| 20260502211021 | 54 | 116 | 3.0 | 9.0 | 0.00 | 0.00 | 0.00 | 83 | 1014.1 |
| 20260502210521 | 54 | 167 | 4.0 | 9.0 | 0.00 | 0.00 | 0.00 | 83 | 1014.1 |
| 20260502210021 | 54 | 169 | 4.0 | 12.0 | 0.00 | 0.00 | 0.00 | 83 | 1014.2 |
| 20260502205521 | 54 | 131 | 5.0 | 12.0 | 0.00 | 0.00 | 0.00 | 83 | 1014.2 |
| 20260502205020 | 54 | 173 | 3.0 | 10.0 | 0.00 | 0.00 | 0.00 | 84 | 1014.3 |
| 20260502204524 | 54 | 213 | 4.0 | 8.0 | 0.00 | 0.00 | 0.00 | 84 | 1014.4 |
| 20260502204021 | 54 | 139 | 3.0 | 10.0 | 0.00 | 0.00 | 0.00 | 84 | 1014.4 |
| 20260502203516 | 53 | 156 | 3.0 | 10.0 | 0.00 | 0.00 | 0.00 | 85 | 1014.4 |
| 20260502203018 | 53 | 140 | 2.0 | 10.0 | 0.00 | 0.00 | 0.00 | 86 | 1014.5 |
| 20260502202518 | 53 | 181 | 3.0 | 10.0 | 0.00 | 0.00 | 0.00 | 86 | 1014.5 |
| 20260502202015 | 53 | 164 | 3.0 | 11.0 | 0.00 | 0.00 | 0.00 | 86 | 1014.5 |
| 20260502201517 | 53 | 153 | 3.0 | 11.0 | 0.00 | 0.00 | 0.00 | 87 | 1014.6 |
| 20260502201019 | 53 | 153 | 4.0 | 10.0 | 0.00 | 0.00 | 0.00 | 87 | 1014.7 |
| 20260502200515 | 53 | 169 | 4.0 | 10.0 | 0.00 | 0.00 | 0.00 | 87 | 1014.7 |
| 20260502200015 | 53 | 162 | 3.0 | 8.0 | 0.00 | 0.00 | 0.00 | 88 | 1014.8 |
| 20260502195517 | 53 | 179 | 4.0 | 10.0 | 0.00 | 0.00 | 0.00 | 88 | 1014.8 |
| 20260502195013 | 53 | 177 | 3.0 | 10.0 | 0.00 | 0.00 | 0.00 | 88 | 1014.8 |
| 20260502194514 | 53 | 152 | 3.0 | 7.0 | 0.00 | 0.00 | 0.00 | 88 | 1014.7 |
| 20260502194014 | 53 | 150 | 3.0 | 9.0 | 0.00 | 0.00 | 0.00 | 88 | 1014.8 |
| 20260502193512 | 53 | 167 | 3.0 | 10.0 | 0.00 | 0.00 | 0.00 | 88 | 1014.8 |
| 20260502193011 | 53 | 360 | 4.0 | 10.0 | 0.00 | 0.00 | 0.00 | 88 | 1014.8 |
| 20260502192514 | 53 | 180 | 2.0 | 9.0 | 0.00 | 0.00 | 0.00 | 89 | 1014.9 |
| 20260502192013 | 53 | 360 | 3.0 | 9.0 | 0.00 | 0.00 | 0.00 | 89 | 1014.8 |
| 20260502191513 | 52 | 360 | 1.0 | 5.0 | 0.00 | 0.00 | 0.00 | 89 | 1014.7 |
| 20260502191006 | 52 | 360 | 2.0 | 10.0 | 0.00 | 0.00 | 0.00 | 90 | 1014.7 |
| 20260502190506 | 52 | 360 | 2.0 | 10.0 | 0.00 | 0.00 | 0.00 | 90 | 1014.7 |
| 20260502190005 | 52 | 360 | 1.0 | 7.0 | 0.00 | 0.00 | 0.00 | 91 | 1014.7 |
| 20260502185505 | 51 | 360 | 3.0 | 6.0 | 0.00 | 0.00 | 0.00 | 91 | 1014.8 |
| 20260502185001 | 51 | 167 | 2.0 | 7.0 | 0.00 | 0.00 | 0.00 | 91 | 1014.8 |
| 20260502184501 | 51 | 159 | 2.0 | 8.0 | 0.00 | 0.00 | 0.00 | 91 | 1014.9 |